Weather in Vit贸ria

Brazil     20掳17鈥00鈥砈   40掳17鈥57鈥砏
temp.,
掳C
wind,
m/s
gust,
m/s
humid.,
%
clouds,
%
prec.,
mm/h
press.,
hPa
HPBL,
m
21 april, wed
wed2100:00+23wnw218470 0.0 1012113
03:00+22wnw218899 0.0 101189
06:00+21w228444 0.0 101298
09:00+25nw116641 0.0 1013297
12:00+26ese33590 0.0 1011767
15:00+26se44580 0.0 1010497
18:00+25s12700 0.1 101280
21:00+24sw57770 0.3 1013430
22 april, thu
thu2200:00+22sw58800 0.0 1014350
03:00+22sw57780 0.0 1012353
06:00+21sw46820 0.0 1014331
09:00+24ssw46670 0.0 1015695
12:00+26sse656712 0.0 1014873
15:00+25s677621 1.7 1013611
18:00+23s698161 5.3 1014501
21:00+23ssw57825 7.1 1016619
23 april, fri
fri2300:00+22sw46856 0.0 1016440
03:00+20sw45870 0.0 1015293
06:00+20sw34810 0.0 1016230
09:00+23sw23650 0.0 1018481
12:00+25se336425 0.0 1016847
15:00+25se336613 0.0 1014606
18:00+24sse23716 0.0 1015419
21:00+23ssw027337 0.0 1016435
24 april, sat
sat2400:00+22nw228039 0.0 1015126
03:00+21w228192 0.0 1014107
06:00+22nw117996 0.1 1015105
09:00+24n237194 0.1 1016264
12:00+27ne456386 0.0 10141002
15:00+28ne676320 0.0 1012776
18:00+25ne57760 0.0 1012438
21:00+24n458328 0.0 1014246
25 april, sun
sun2500:00+23n35840 0.0 1014187
03:00+22n34860 0.0 1013154
06:00+22nnw23855 0.0 1014116
09:00+25s116925 0.0 1015369
12:00+25se437350 0.0 1013622
15:00+26ese3371100 0.0 1011568
18:00+25n128369 0.2 1012201
21:00+24n23885 0.4 1014208